WLF712 KCOS-KTEX

Flight info

Callsign WLF712
Flight time 0h 53m
Altitude 17000
Route DRAKE V83 PUB/N0444F160 RODDY
Aircraft C750/M-SBDE3FGHRWXY/S

Departure

Time 2026-05-03 20:17
Airport City of Colorado Springs Municipal Airport (KCOS)

Arrival

Time 2026-05-03 21:10
Airport Telluride Regional Airport (KTEX)
Time Latitude Longitude Altitude Speed Heading
2026-05-03 20:15 38.82287 -104.71516 6178 ft 2 kts 135°
2026-05-03 20:15 38.81578 -104.68575 6169 ft 0 kts 180°
2026-05-03 20:15 38.82293 -104.71508 6180 ft 0 kts 135°
2026-05-03 20:16 38.82267 -104.71475 6180 ft 28 kts 135°
2026-05-03 20:16 38.81882 -104.70979 6174 ft 126 kts 134°
2026-05-03 20:17 38.81155 -104.70044 6457 ft 157 kts 136°
2026-05-03 20:17 38.80394 -104.69074 7328 ft 145 kts 138°
2026-05-03 20:17 38.79672 -104.68179 8006 ft 153 kts 136°
2026-05-03 20:17 38.78881 -104.67076 8362 ft 182 kts 134°
2026-05-03 20:18 38.77959 -104.65780 8709 ft 210 kts 134°
2026-05-03 20:18 38.76915 -104.64315 9062 ft 236 kts 134°
2026-05-03 20:18 38.75737 -104.62676 9535 ft 262 kts 134°
2026-05-03 20:18 38.74464 -104.60933 10064 ft 279 kts 134°
2026-05-03 20:19 38.73118 -104.58924 10012 ft 316 kts 129°
2026-05-03 20:19 38.71741 -104.56551 10115 ft 346 kts 127°
2026-05-03 20:19 38.70292 -104.53976 10498 ft 361 kts 126°
2026-05-03 20:19 38.68830 -104.51363 11348 ft 362 kts 126°
2026-05-03 20:20 38.67353 -104.48733 12083 ft 366 kts 126°
2026-05-03 20:20 38.65853 -104.46061 12656 ft 373 kts 126°
2026-05-03 20:20 38.64334 -104.43351 13403 ft 377 kts 126°
2026-05-03 20:20 38.62741 -104.40725 13982 ft 382 kts 135°
2026-05-03 20:21 38.60462 -104.38941 14627 ft 381 kts 162°
2026-05-03 20:21 38.57895 -104.38595 15324 ft 377 kts 187°
2026-05-03 20:21 38.55365 -104.39375 16040 ft 375 kts 198°
2026-05-03 20:21 38.52769 -104.39934 16654 ft 382 kts 188°
2026-05-03 20:22 38.50077 -104.40319 16878 ft 398 kts 189°
2026-05-03 20:22 38.47234 -104.40525 16886 ft 420 kts 182°
2026-05-03 20:22 38.44258 -104.40459 16898 ft 432 kts 181°
2026-05-03 20:22 38.41236 -104.40608 16891 ft 436 kts 188°
2026-05-03 20:23 38.38342 -104.41420 16891 ft 414 kts 200°
2026-05-03 20:23 38.35773 -104.42917 16904 ft 405 kts 212°
2026-05-03 20:23 38.33540 -104.45099 16904 ft 404 kts 225°
2026-05-03 20:23 38.31869 -104.47745 16901 ft 371 kts 239°
2026-05-03 20:24 38.30769 -104.50719 16903 ft 371 kts 251°
2026-05-03 20:24 38.30259 -104.53928 16903 ft 370 kts 265°
2026-05-03 20:24 38.30351 -104.57198 16911 ft 370 kts 276°
2026-05-03 20:24 38.30681 -104.60450 16930 ft 371 kts 276°
2026-05-03 20:25 38.30943 -104.63719 16913 ft 370 kts 274°
2026-05-03 20:25 38.31123 -104.66987 16896 ft 370 kts 274°
2026-05-03 20:25 38.31330 -104.70256 16878 ft 370 kts 275°
2026-05-03 20:25 38.31576 -104.73521 16858 ft 370 kts 275°
2026-05-03 20:26 38.31816 -104.76783 16841 ft 371 kts 275°
2026-05-03 20:26 38.32033 -104.80056 16820 ft 370 kts 274°
2026-05-03 20:26 38.32246 -104.83326 16803 ft 371 kts 274°
2026-05-03 20:26 38.32469 -104.86593 16786 ft 371 kts 274°
2026-05-03 20:27 38.32697 -104.89862 16767 ft 371 kts 275°
2026-05-03 20:27 38.32920 -104.93131 16735 ft 373 kts 274°
2026-05-03 20:27 38.33139 -104.96451 16715 ft 376 kts 274°
2026-05-03 20:27 38.33359 -104.99763 16718 ft 376 kts 274°
2026-05-03 20:28 38.33583 -105.03078 16665 ft 376 kts 274°
2026-05-03 20:28 38.33804 -105.06390 16667 ft 376 kts 274°
2026-05-03 20:28 38.34022 -105.09704 16657 ft 375 kts 274°
2026-05-03 20:28 38.34239 -105.13015 16654 ft 375 kts 274°
2026-05-03 20:29 38.34457 -105.16334 16656 ft 376 kts 274°
2026-05-03 20:29 38.34674 -105.19651 16659 ft 375 kts 274°
2026-05-03 20:29 38.34893 -105.23031 16682 ft 391 kts 274°
2026-05-03 20:29 38.35115 -105.26485 16690 ft 391 kts 274°
2026-05-03 20:30 38.35339 -105.29955 16679 ft 395 kts 275°
2026-05-03 20:30 38.35561 -105.33404 16682 ft 397 kts 274°
2026-05-03 20:30 38.35783 -105.36910 16736 ft 395 kts 274°
2026-05-03 20:30 38.35756 -105.40414 16719 ft 394 kts 266°
2026-05-03 20:31 38.35575 -105.43916 16724 ft 395 kts 266°
2026-05-03 20:31 38.35423 -105.47441 16726 ft 398 kts 267°
2026-05-03 20:31 38.35287 -105.50950 16768 ft 398 kts 267°
2026-05-03 20:31 38.35136 -105.54455 16766 ft 397 kts 267°
2026-05-03 20:32 38.34972 -105.57976 16751 ft 399 kts 266°
2026-05-03 20:32 38.34813 -105.61490 16750 ft 397 kts 267°
2026-05-03 20:32 38.34659 -105.65006 16780 ft 393 kts 267°
2026-05-03 20:32 38.34503 -105.68475 16780 ft 389 kts 267°
2026-05-03 20:33 38.34345 -105.71931 16781 ft 393 kts 267°
2026-05-03 20:33 38.34187 -105.75387 16777 ft 392 kts 267°
2026-05-03 20:33 38.34027 -105.78860 16814 ft 392 kts 267°
2026-05-03 20:33 38.33868 -105.82301 16814 ft 390 kts 267°
2026-05-03 20:34 38.33708 -105.85720 16818 ft 385 kts 267°
2026-05-03 20:34 38.33548 -105.89134 16814 ft 385 kts 267°
2026-05-03 20:34 38.33387 -105.92567 16849 ft 393 kts 266°
2026-05-03 20:34 38.33223 -105.96012 16955 ft 389 kts 266°
2026-05-03 20:35 38.33058 -105.99452 16957 ft 386 kts 267°
2026-05-03 20:35 38.32899 -106.02876 16947 ft 389 kts 266°
2026-05-03 20:35 38.32731 -106.06290 16955 ft 386 kts 266°
2026-05-03 20:35 38.32560 -106.09709 16960 ft 385 kts 266°
2026-05-03 20:36 38.32396 -106.13094 16959 ft 383 kts 266°
2026-05-03 20:36 38.32232 -106.16485 16953 ft 386 kts 266°
2026-05-03 20:36 38.32061 -106.19906 16951 ft 384 kts 266°
2026-05-03 20:36 38.31884 -106.23330 16969 ft 391 kts 266°
2026-05-03 20:37 38.31714 -106.26744 16946 ft 386 kts 266°
2026-05-03 20:37 38.31552 -106.30113 16934 ft 384 kts 266°
2026-05-03 20:37 38.31384 -106.33526 16924 ft 389 kts 266°
2026-05-03 20:37 38.31205 -106.36931 16931 ft 388 kts 266°
2026-05-03 20:38 38.31019 -106.40373 16936 ft 387 kts 266°
2026-05-03 20:38 38.30846 -106.43804 16937 ft 388 kts 267°
2026-05-03 20:38 38.30679 -106.47208 16937 ft 385 kts 266°
2026-05-03 20:38 38.30501 -106.50609 16951 ft 384 kts 266°
2026-05-03 20:39 38.30317 -106.54035 16956 ft 394 kts 266°
2026-05-03 20:39 38.30130 -106.57462 16944 ft 387 kts 266°
2026-05-03 20:39 38.29953 -106.60851 16933 ft 383 kts 266°
2026-05-03 20:39 38.29775 -106.64277 16953 ft 390 kts 266°
2026-05-03 20:40 38.29588 -106.67702 16959 ft 390 kts 266°
2026-05-03 20:40 38.29401 -106.71145 16953 ft 383 kts 266°
2026-05-03 20:40 38.29218 -106.74495 16961 ft 375 kts 266°
2026-05-03 20:40 38.29038 -106.77816 16965 ft 380 kts 266°
2026-05-03 20:41 38.28854 -106.81159 16964 ft 376 kts 266°
2026-05-03 20:41 38.28674 -106.84536 16950 ft 382 kts 266°
2026-05-03 20:41 38.28485 -106.87899 17006 ft 383 kts 266°
2026-05-03 20:41 38.28297 -106.91243 17016 ft 384 kts 266°
2026-05-03 20:42 38.28111 -106.94596 17018 ft 377 kts 266°
2026-05-03 20:42 38.27924 -106.97925 17012 ft 384 kts 266°
2026-05-03 20:42 38.27732 -107.01318 17009 ft 378 kts 266°
2026-05-03 20:42 38.27543 -107.04664 17003 ft 375 kts 266°
2026-05-03 20:43 38.27351 -107.08004 17000 ft 380 kts 266°
2026-05-03 20:43 38.27156 -107.11356 16996 ft 381 kts 266°
2026-05-03 20:43 38.26961 -107.14724 16982 ft 381 kts 266°
2026-05-03 20:43 38.26772 -107.18050 16995 ft 377 kts 266°
2026-05-03 20:44 38.26582 -107.21361 16994 ft 375 kts 266°
2026-05-03 20:44 38.26384 -107.24718 16986 ft 378 kts 266°
2026-05-03 20:44 38.26184 -107.28081 16993 ft 387 kts 266°
2026-05-03 20:44 38.25985 -107.31446 16980 ft 379 kts 266°
2026-05-03 20:45 38.25790 -107.34782 16962 ft 375 kts 266°
2026-05-03 20:45 38.25593 -107.38102 16972 ft 379 kts 266°
2026-05-03 20:45 38.25391 -107.41424 16974 ft 380 kts 265°
2026-05-03 20:45 38.25183 -107.44818 16972 ft 380 kts 265°
2026-05-03 20:46 38.24984 -107.48168 16967 ft 378 kts 265°
2026-05-03 20:46 38.24786 -107.51457 16981 ft 385 kts 265°
2026-05-03 20:46 38.24578 -107.54848 16958 ft 381 kts 265°
2026-05-03 20:46 38.24367 -107.58255 16952 ft 387 kts 265°
2026-05-03 20:47 38.24157 -107.61662 16938 ft 388 kts 265°
2026-05-03 20:47 38.23950 -107.65040 16935 ft 381 kts 265°
2026-05-03 20:47 38.23732 -107.68442 16946 ft 384 kts 265°
2026-05-03 20:47 38.23519 -107.71845 16947 ft 390 kts 265°
2026-05-03 20:48 38.23317 -107.75247 16920 ft 385 kts 265°
2026-05-03 20:48 38.23103 -107.78631 16912 ft 381 kts 264°
2026-05-03 20:48 38.22882 -107.81989 16953 ft 383 kts 264°
2026-05-03 20:48 38.22666 -107.85338 16951 ft 382 kts 264°
2026-05-03 20:49 38.22449 -107.88739 16952 ft 381 kts 264°
2026-05-03 20:49 38.22235 -107.92116 16960 ft 380 kts 264°
2026-05-03 20:49 38.22022 -107.95467 16957 ft 382 kts 264°
2026-05-03 20:49 38.21800 -107.98833 16949 ft 383 kts 264°
2026-05-03 20:50 38.21578 -108.02203 16880 ft 376 kts 264°
2026-05-03 20:50 38.21372 -108.05386 16437 ft 347 kts 264°
2026-05-03 20:50 38.21179 -108.08337 16071 ft 322 kts 264°
2026-05-03 20:50 38.20997 -108.11083 15783 ft 302 kts 264°
2026-05-03 20:51 38.20823 -108.13697 15424 ft 300 kts 264°
2026-05-03 20:51 38.20644 -108.16386 15036 ft 306 kts 264°
2026-05-03 20:51 38.20468 -108.19037 14619 ft 296 kts 264°
2026-05-03 20:51 38.20296 -108.21625 14272 ft 293 kts 264°
2026-05-03 20:52 38.20114 -108.24180 13871 ft 288 kts 263°
2026-05-03 20:52 38.19634 -108.26603 13455 ft 279 kts 246°
2026-05-03 20:52 38.18568 -108.28580 13110 ft 266 kts 228°
2026-05-03 20:52 38.17108 -108.29943 12906 ft 256 kts 211°
2026-05-03 20:53 38.16023 -108.30486 12890 ft 253 kts 200°
2026-05-03 20:53 38.14242 -108.30727 12903 ft 264 kts 182°
2026-05-03 20:53 38.12451 -108.30210 12922 ft 267 kts 163°
2026-05-03 20:53 38.10716 -108.29315 12945 ft 263 kts 162°
2026-05-03 20:54 38.09113 -108.28470 12927 ft 237 kts 162°
2026-05-03 20:54 38.06107 -108.26938 12912 ft 232 kts 161°
2026-05-03 20:54 38.04639 -108.26073 12892 ft 237 kts 151°
2026-05-03 20:55 38.03584 -108.24438 12897 ft 244 kts 120°
2026-05-03 20:55 38.02956 -108.22448 12943 ft 234 kts 112°
2026-05-03 20:55 38.02420 -108.20589 12944 ft 220 kts 112°
2026-05-03 20:55 38.01873 -108.18801 12928 ft 217 kts 114°
2026-05-03 20:56 38.01308 -108.16994 12939 ft 224 kts 115°
2026-05-03 20:56 38.00745 -108.15162 12954 ft 222 kts 114°
2026-05-03 20:56 38.00188 -108.13345 12933 ft 222 kts 113°
2026-05-03 20:56 37.99701 -108.11434 12674 ft 234 kts 107°
2026-05-03 20:57 37.99303 -108.09478 12278 ft 230 kts 107°
2026-05-03 20:57 37.98881 -108.07521 11889 ft 225 kts 108°
2026-05-03 20:57 37.98491 -108.05676 11546 ft 209 kts 107°
2026-05-03 20:57 37.98142 -108.03998 11217 ft 187 kts 106°
2026-05-03 20:58 37.97809 -108.02443 10931 ft 183 kts 107°
2026-05-03 20:58 37.97496 -108.00935 10606 ft 173 kts 107°
2026-05-03 20:58 37.97207 -107.99534 10401 ft 157 kts 109°
2026-05-03 20:58 37.96912 -107.98173 10191 ft 159 kts 107°
2026-05-03 20:59 37.96631 -107.96830 10179 ft 157 kts 107°
2026-05-03 20:59 37.96349 -107.95496 9833 ft 151 kts 108°
2026-05-03 20:59 37.96088 -107.94260 9577 ft 146 kts 109°
2026-05-03 20:59 37.95832 -107.92985 9290 ft 149 kts 107°
2026-05-03 21:00 37.95568 -107.91755 9071 ft 136 kts 109°
2026-05-03 21:00 37.95380 -107.91052 9066 ft 119 kts 112°
2026-05-03 21:00 37.94724 -107.89850 9592 ft 129 kts 149°
2026-05-03 21:00 37.93847 -107.89423 10215 ft 139 kts 177°
2026-05-03 21:01 37.92907 -107.89634 10859 ft 145 kts 211°
2026-05-03 21:01 37.92235 -107.90574 11457 ft 144 kts 241°
2026-05-03 21:01 37.91912 -107.91869 11827 ft 170 kts 262°
2026-05-03 21:01 37.91932 -107.93432 12316 ft 174 kts 275°
2026-05-03 21:02 37.92175 -107.94981 12731 ft 198 kts 288°
2026-05-03 21:02 37.92974 -107.96741 12240 ft 258 kts 297°
2026-05-03 21:02 37.93693 -107.98754 12315 ft 242 kts 290°
2026-05-03 21:02 37.94300 -108.00687 12497 ft 242 kts 289°
2026-05-03 21:03 37.94912 -108.02630 13112 ft 223 kts 289°
2026-05-03 21:03 37.95505 -108.04518 13231 ft 242 kts 289°
2026-05-03 21:03 37.96104 -108.06486 13156 ft 237 kts 288°
2026-05-03 21:03 37.96700 -108.08446 13143 ft 240 kts 287°
2026-05-03 21:04 37.96960 -108.10539 12950 ft 239 kts 270°
2026-05-03 21:04 37.96926 -108.12643 12969 ft 244 kts 267°
2026-05-03 21:04 37.96855 -108.14780 13119 ft 237 kts 266°
2026-05-03 21:04 37.96791 -108.16869 13088 ft 243 kts 267°
2026-05-03 21:05 37.96860 -108.18988 13002 ft 245 kts 283°
2026-05-03 21:05 37.97840 -108.20734 12855 ft 251 kts 320°
2026-05-03 21:05 37.99529 -108.21362 12859 ft 263 kts 355°
2026-05-03 21:05 38.01259 -108.20574 12898 ft 271 kts 33°
2026-05-03 21:06 38.02369 -108.18620 12902 ft 283 kts 70°
2026-05-03 21:06 38.02432 -108.16201 12913 ft 276 kts 106°
2026-05-03 21:06 38.01527 -108.14123 12984 ft 267 kts 129°
2026-05-03 21:06 38.00393 -108.12228 13076 ft 272 kts 128°
2026-05-03 21:07 37.99429 -108.10214 12487 ft 266 kts 118°
2026-05-03 21:07 37.98854 -108.08043 11974 ft 249 kts 105°
2026-05-03 21:07 37.98533 -108.05984 11577 ft 235 kts 103°
2026-05-03 21:07 37.98184 -108.04070 11213 ft 209 kts 107°
2026-05-03 21:08 37.97816 -108.02394 10938 ft 190 kts 109°
2026-05-03 21:08 37.97474 -108.00846 10583 ft 175 kts 107°
2026-05-03 21:08 37.97182 -107.99445 10342 ft 157 kts 108°
2026-05-03 21:08 37.96910 -107.98154 10157 ft 149 kts 105°
2026-05-03 21:09 37.96644 -107.96886 10199 ft 153 kts 108°
2026-05-03 21:09 37.96355 -107.95547 9896 ft 161 kts 109°
2026-05-03 21:09 37.96082 -107.94220 9562 ft 153 kts 109°
2026-05-03 21:09 37.95816 -107.92928 9211 ft 149 kts 107°
2026-05-03 21:10 37.95557 -107.91730 9055 ft 130 kts 108°
2026-05-03 21:10 37.95371 -107.90860 9066 ft 50 kts 131°
2026-05-03 21:10 37.95364 -107.90828 9047 ft 0 kts 128°
2026-05-03 21:14 37.95358 -107.90790 9047 ft 6 kts 97°
2026-05-03 21:14 37.95354 -107.90749 9048 ft 4 kts 97°
2026-05-03 21:14 37.95352 -107.90728 9048 ft 1 kts 100°
2026-05-03 21:15 37.95349 -107.90716 9048 ft 1 kts 107°
2026-05-03 21:15 37.95348 -107.90712 9048 ft 1 kts 107°
2026-05-03 21:15 37.95338 -107.90670 9049 ft 5 kts 107°
2026-05-03 21:15 37.95331 -107.90639 9051 ft 2 kts 104°
2026-05-03 21:16 37.95322 -107.90597 9050 ft 12 kts 104°
2026-05-03 21:16 37.95300 -107.90488 9054 ft 15 kts 105°
2026-05-03 21:16 37.95269 -107.90342 9058 ft 16 kts 105°
2026-05-03 21:16 37.95244 -107.90220 9060 ft 12 kts 104°
2026-05-03 21:17 37.95248 -107.90141 9062 ft 7 kts 38°
2026-05-03 21:17 37.95274 -107.90132 9063 ft 3 kts 12°
2026-05-03 21:17 37.95272 -107.90132 9063 ft 0 kts 12°
2026-05-03 21:18 37.95324 -107.90119 9067 ft 11 kts
2026-05-03 21:19 37.95349 -107.90171 9067 ft 9 kts 284°
2026-05-03 21:19 37.95364 -107.90244 9066 ft 9 kts 292°
2026-05-03 21:19 37.95416 -107.90249 9067 ft 7 kts 32°
2026-05-03 21:19 37.95420 -107.90222 9067 ft 0 kts 101°